Back to catalog

SL-12 DEB

LostHEO
NORAD 43919·DEBRIS·🇷🇺 Russia

Launched Dec 25, 2005 from Baikonur Cosmodrome

Loading…

Next Passes (next 24 hours)

TLE

StaleSource: Space-Track

Epoch: May 9, 2021, 23:52 UTC

1 43919U 05050H   21129.99503984  .00000454  00000-0  22988-2 0  9992
2 43919  65.4430 344.0847 5595484 265.4210  32.1499  4.36432526 38891

Track SL-12 DEB in real time with AllMySat

Download on the App Store